Regional Weather Roundup
Issued by NWS

Home | Current Version | Previous Version | Graphics & Text | Print | Product List | Glossary On
Versions: 1 2 3 4 5 6 7 8 9 10 11 12 13 14 15 16 17 18 19 20 21 22 23 24 25 26 27 28 29 30 31 32 33 34 35 36 37 38 39 40 41 42 43 44 45 46 47 48 49 50
000
ASUS45 KSLC 210710
RWRUT

UTAH REGIONAL WEATHER ROUNDUP
NATIONAL WEATHER SERVICE SALT LAKE CITY UT
100 AM MDT TUE OCT 21 2014

UTZ001>011-023>025-210800-

NORTHERN UTAH

CITY           SKY/WX    TMP DP  RH WIND       PRES   REMARKS
BRIGHAM CITY   MOCLDY    52  39  61 NE7       29.88S
HILL AFB       CLOUDY    62  38  40 S9        29.91F
LOGAN          CLEAR     45  38  76 CALM      29.89F
OGDEN          PTCLDY    61  37  41 S14       29.88F
PROVO AIRPORT  MOCLDY    63  39  42 SE15      29.95R
SALT LAKE CITY PTCLDY    64  40  41 SE10      29.90S
VERNAL         CLOUDY    50  38  63 CALM      30.04F
WENDOVER       MOCLDY    54  37  54 NE8       29.84F
HEBER CITY     MOCLDY    46  37  71 CALM      30.01S
WEST JORDAN    CLOUDY    61  46  59 S13       29.94R

$$

UTZ012>022-026-027-210800-

SOUTHERN/CENTRAL UTAH

CITY           SKY/WX    TMP DP  RH WIND       PRES   REMARKS
BLANDING       PTCLDY    53  40  62 NE5       30.19S
BRYCE CANYON   CLEAR     32  30  92 SW5       30.18S WCI  27
CEDAR CITY     CLEAR     57  37  47 S10       30.03S
DELTA          PTCLDY    59  38  46 S9        29.96S
HANKSVILLE       N/A     50  36  57 CALM      30.03S
MILFORD        MOCLDY    54  37  52 S9        29.98F
MOAB/CYNLANDS  CLOUDY    56  38  50 CALM      30.00S
PRICE          PTCLDY    50  36  58 NE8       30.07F
ST GEORGE      CLOUDY    70  37  30 SE10      29.92S

$$

REGIONAL REPORTS     COLORADO/ARIZONA

CITY           SKY/WX    TMP DP  RH WIND       PRES   REMARKS
CRAIG, CO      CLEAR     36  31  82 CALM      30.12S
GRAND JUNCTION CLOUDY    59  39  47 SE8       30.04S
RIFLE          PTCLDY    46  37  71 CALM      30.10S
MONTROSE       CLOUDY    53  38  56 SE10      30.13S
CORTEZ         CLEAR     51  40  65 SE3       30.14S
PAGE, AZ       NOT AVBL
GRAND CANYON   PTCLDY    37  31  78 CALM      30.16S
KINGMAN        CLEAR     62  44  51 S9        29.97S
FLAGSTAFF      CLEAR     39  35  86 CALM      30.18S

$$

REGIONAL REPORTS    NEVADA/IDAHO/WYOMING

CITY           SKY/WX    TMP DP  RH WIND       PRES   REMARKS
LAS VEGAS, NV  MOCLDY    78  40  25 S14       29.81S
ELY            PTCLDY    55  34  45 S17       29.98F
ELKO           PTCLDY    58  28  32 SW6       29.83S
POCATELLO, ID  LGT RAIN  67  34  29 S15G21    29.82F
BURLEY         MOCLDY    66  36  32 S13       29.77S
EVANSTON, WY   MOCLDY    49  34  56 SE6       30.06F
ROCK SPRINGS   CLEAR     50  33  52 SE9       30.07S
KEMMERER       MOCLDY    45  32  61 CALM      30.08S

$$


USA.gov is the U.S. government's official web portal to all federal, state and local government web resources and services.